DECAYED

THORAD AGENA D DEB, 4649 (Decayed)

Orbit data source: Space-Track

THORAD AGENA D DEB, 4649 was space debris in LEO originally from a launch on Wed, 08 Apr 1970 UTC launched from the Air Force Western Test Range (AFWTR). Debris objects in space refer to the collection of defunct objects orbiting the Earth. Examples of debris include non-operational satellites, rocket bodies, and fragments generated from explosions, collisions, or faulty payload assembly.

Not visible in the next 10 days
THORAD AGENA D DEB details
Identifier
4649, 1970-025AH
Orbit
Decayed
Last TLE update3 weeks ago
Origin
Flag of USGSFC (US)
ManufacturerUnknown
MissionDecayed spacecraft
Bus & MotorUnknown
MassUnknown
Launch date (UTC)
1970-04-08 (55 years ago)
Launch vehicleUnknown
Launch site
Air Force Western Test Range (AFWTR)
Object type
Payload
Rocket body
Debris
Shape & HBRUnknown
Radar Cross SectionSmall (<0.1 m²)

Expand to show TLE details & history

TLE from 3 weeks ago
0 THORAD AGENA D DEB
1  4649U 70025AH  24339.91189580  .19774944  41835-5  29124-2 0  9990
2  4649  99.8078 214.2988 0009216 148.4530 211.7312 16.34422091865551
Epoch: 2024-12-04T21:53Z
Definitive object data (Epoch: 2024-12-04T21:53:07.797Z)
Latitude-0.00005°
Longitude171.81607°
Altitude188.987 km
Speed7.79 km/s
True Right ascension14h 17m 11s
True Declination0° 00' 00"
Sunlit
Object was in daylight at TLE epoch
Visualization observer readout
Observer readout values are unavailable because the object's trajectory could not be propagated. This is usually caused when the trajectory data is faulty or the object's orbit has decayed.
Visualization observer readout
Observer readout values are unavailable because the object's trajectory could not be propagated. This is usually caused when the trajectory data is faulty or the object's orbit has decayed.
Orbital elements
Apogee altitude183.664 km
Perigee altitude171.581 km
Semi-major axis6,555.76 km
Eccentricity0.0009216
Inclination99.8078°
RAAN214.2988°
Arg. of periapsis148.453°
True anomaly211.67571°
Mean anomaly211.7312°
Eccentric anomaly211.70345°
Mean motion4.08892 °/min
BSTAR0.0029124
Orbital period88.04 mins
Loading maneuver chart data...

THORAD AGENA D DEB Visibility forecast

Observer location: undefined°, undefined

This satellite is decayed
Span
Click to sort rows by Start time (UTC) header in descending order
Start Az.
Max El. time (UTC)
Max El. Az.
Max El.
End time (UTC)
End Az.
|